Change the Weather History Date:

Sunday, January 13, 2013

  Actual Average (KARR) Record (KARR)
Temperature  
Mean Temperature 17 °F 21 °F  
Max Temperature 24 °F 29 °F 46 °F (2006)
Min Temperature 10 °F 13 °F -13 °F (2009)
Degree Days  
Heating Degree Days 48 44  
Month to date heating degree days 570  
Since 1 July heating degree days 3219  
Cooling Degree Days 0 0  
Month to date cooling degree days 0  
Year to date cooling degree days 0  
Moisture  
Dew Point 14 °F    
Average Humidity 83    
Maximum Humidity 89    
Minimum Humidity 77    
Precipitation  
Precipitation 0.01 in 0.04 in 0.49 in (2006)
Month to date precipitation 0.53  
Year to date precipitation 0.53  
Sea Level Pressure  
Sea Level Pressure 30.03 in    
Wind  
Wind Speed 12 mph (WNW)    
Max Wind Speed 21 mph    
Max Gust Speed 23 mph    
Visibility 9 miles    
Events Snow    
T = Trace of Precipitation, MM = Missing Value Source: NWS Daily Summary

Daily Weather History Graph

Daily Weather History Graph

Search for Another Location

Airport or City:

Trip Planner

Search our weather history database for the weather conditions in past years. The results will help you decide how hot, cold, wet, or windy it might be!

Date:

Astronomy

Jan. 13, 2013 Rise Set
Actual Time 7:20 AM CST 4:46 PM CST
Civil Twilight 6:49 AM CST 5:17 PM CST
Nautical Twilight 6:15 AM CST 5:52 PM CST
Astronomical Twilight 5:41 AM CST 6:25 PM CST
Moon 8:16 AM CST (1/13) 7:28 PM CST (1/13)
Length of Visible Light 10h 27m
Length of Day
9h 25m
Waxing Crescent, 5% of the Moon is Illuminated
Jan 13
Waxing Crescent
Jan 18
First Quarter
Jan 26
Full
Feb 3
Last Quarter
Feb 10
New

Hourly Weather History & Observations

Time (CST) Temp. Windchill Dew Point Humidity Pressure Visibility Wind Dir Wind Speed Gust Speed Precip Events Conditions
12:15 AM 24.6 °F 13.2 °F 21.7 °F 89% 29.90 in 5.0 mi NW 12.7 mph 20.7 mph N/A   Overcast
12:35 AM 24.6 °F 13.8 °F 21.7 °F 89% 29.92 in 4.0 mi NW 11.5 mph - N/A Snow Light Snow
12:55 AM 23.9 °F 14.2 °F 21.2 °F 89% 29.92 in 4.0 mi NNW 9.2 mph - 0.01 in Snow Light Snow
1:15 AM 23.7 °F 14.7 °F 21.0 °F 89% 29.91 in 3.0 mi NNW 8.1 mph - N/A Snow Light Snow
1:35 AM 23.9 °F 15.8 °F 21.2 °F 89% 29.93 in 5.0 mi NW 6.9 mph - N/A   Overcast
1:55 AM 23.5 °F 13.7 °F 20.8 °F 89% 29.90 in 7.0 mi North 9.2 mph - N/A Snow Light Snow
2:15 AM 23.7 °F 14.7 °F 21.0 °F 89% 29.87 in 10.0 mi North 8.1 mph - N/A   Overcast
2:35 AM 23.9 °F 15.8 °F 21.2 °F 89% 29.90 in 10.0 mi NW 6.9 mph - N/A   Overcast
2:55 AM 23.9 °F 14.2 °F 21.2 °F 89% 29.94 in 10.0 mi NW 9.2 mph - N/A   Overcast
3:15 AM 23.9 °F 15.0 °F 21.0 °F 89% 29.92 in 10.0 mi NW 8.1 mph - N/A   Overcast
3:35 AM 23.2 °F 13.3 °F 20.1 °F 88% 29.90 in 10.0 mi NW 9.2 mph - N/A   Overcast
3:55 AM 22.8 °F 10.9 °F 19.9 °F 89% 29.92 in 10.0 mi NW 12.7 mph - N/A   Overcast
4:15 AM 22.6 °F 11.9 °F 19.4 °F 87% 29.89 in 10.0 mi NW 10.4 mph 16.1 mph N/A   Overcast
4:35 AM 22.6 °F 11.3 °F 19.4 °F 87% 29.95 in 10.0 mi WNW 11.5 mph - N/A   Overcast
4:55 AM 22.1 °F 11.3 °F 19.2 °F 89% 29.96 in 10.0 mi WNW 10.4 mph - N/A   Overcast
5:15 AM 21.9 °F 10.4 °F 18.5 °F 87% 29.95 in 10.0 mi WNW 11.5 mph - N/A   Overcast
5:35 AM 21.9 °F 10.4 °F 18.5 °F 87% 29.97 in 7.0 mi WNW 11.5 mph - N/A   Overcast
5:55 AM 21.9 °F 9.2 °F 18.5 °F 87% 29.96 in 3.0 mi WNW 13.8 mph - N/A Snow Light Snow
6:15 AM 21.2 °F 9.5 °F 18.3 °F 89% 29.97 in 3.0 mi WNW 11.5 mph - N/A Snow Light Snow
6:35 AM 21.0 °F 12.4 °F 18.1 °F 89% 29.95 in 4.0 mi NW 6.9 mph - N/A Snow Light Snow
6:55 AM 21.0 °F 10.6 °F 18.0 °F 88% 29.97 in 2.5 mi WNW 9.2 mph - N/A Snow Light Snow
7:15 AM 20.8 °F 12.1 °F 17.6 °F 87% 29.99 in 7.0 mi WNW 6.9 mph - N/A   Overcast
7:35 AM 21.0 °F 11.4 °F 17.8 °F 87% 30.00 in 7.0 mi WNW 8.1 mph - N/A   Overcast
7:55 AM 21.0 °F 11.4 °F 17.6 °F 87% 30.01 in 5.0 mi WNW 8.1 mph - N/A Snow Light Snow
8:15 AM 20.8 °F 8.4 °F 17.6 °F 87% 30.00 in 4.0 mi WNW 12.7 mph - N/A Snow Light Snow
8:35 AM 20.8 °F 9.7 °F 17.6 °F 87% 30.01 in 5.0 mi WNW 10.4 mph - N/A Snow Light Snow
8:55 AM 21.0 °F 10.6 °F 17.6 °F 87% 29.98 in 5.0 mi NW 9.2 mph - N/A   Overcast
9:15 AM 21.2 °F 8.3 °F 17.4 °F 85% 30.00 in 10.0 mi WNW 13.8 mph - N/A   Overcast
9:35 AM 20.5 °F 6.9 °F 16.3 °F 84% 30.02 in 10.0 mi West 15.0 mph - N/A   Overcast
9:55 AM 20.1 °F 6.4 °F 15.8 °F 83% 30.02 in 10.0 mi West 15.0 mph - N/A   Overcast
10:15 AM 19.6 °F 7.4 °F 15.1 °F 83% 30.03 in 10.0 mi WNW 11.5 mph - N/A   Overcast
10:35 AM 19.2 °F 6.4 °F 14.5 °F 82% 30.02 in 10.0 mi WNW 12.7 mph - N/A   Overcast
10:55 AM 19.0 °F 5.6 °F 14.7 °F 83% 30.00 in 10.0 mi WNW 13.8 mph - N/A   Overcast
11:15 AM 19.2 °F 6.4 °F 14.9 °F 83% 29.99 in 10.0 mi WNW 12.7 mph 17.3 mph N/A   Overcast
11:35 AM 18.9 °F 5.3 °F 14.7 °F 84% 29.98 in 10.0 mi WNW 13.8 mph - N/A   Overcast
11:55 AM 18.9 °F 4.8 °F 14.5 °F 83% 30.00 in 10.0 mi West 15.0 mph - N/A   Overcast
12:15 PM 18.5 °F 3.8 °F 14.0 °F 83% 30.01 in 10.0 mi West 16.1 mph - N/A   Overcast
12:35 PM 18.3 °F 6.6 °F 13.6 °F 82% 30.01 in 10.0 mi West 10.4 mph 20.7 mph N/A   Overcast
12:55 PM 18.1 °F 5.0 °F 13.1 °F 81% 30.01 in 10.0 mi West 12.7 mph - N/A   Overcast
1:15 PM 18.1 °F 3.9 °F 13.1 °F 81% 30.01 in 10.0 mi West 15.0 mph 20.7 mph N/A   Overcast
1:35 PM 17.6 °F 5.7 °F 13.1 °F 83% 30.00 in 10.0 mi West 10.4 mph - N/A   Overcast
1:55 PM 17.6 °F 5.0 °F 12.9 °F 82% 30.01 in 10.0 mi WNW 11.5 mph - N/A   Overcast
2:15 PM 18.0 °F 6.1 °F 13.1 °F 81% 30.01 in 10.0 mi West 10.4 mph 16.1 mph N/A   Overcast
2:35 PM 17.6 °F 5.7 °F 12.6 °F 81% 30.01 in 10.0 mi West 10.4 mph - N/A   Overcast
2:55 PM 17.6 °F 4.3 °F 12.6 °F 81% 30.01 in 10.0 mi WNW 12.7 mph 17.3 mph N/A   Overcast
3:15 PM 17.4 °F 4.1 °F 12.4 °F 81% 30.02 in 10.0 mi WNW 12.7 mph 19.6 mph N/A   Overcast
3:35 PM 17.2 °F 1.7 °F 12.0 °F 80% 30.04 in 10.0 mi West 17.3 mph - N/A   Overcast
3:55 PM 17.4 °F 4.1 °F 11.8 °F 79% 30.05 in 10.0 mi West 12.7 mph 19.6 mph N/A   Overcast
4:15 PM 17.6 °F 2.7 °F 12.0 °F 79% 30.06 in 10.0 mi West 16.1 mph - N/A   Overcast
4:35 PM 17.1 °F 1.0 °F 11.3 °F 78% 30.07 in 10.0 mi West 18.4 mph 21.9 mph N/A   Overcast
4:55 PM 16.5 °F 1.3 °F 10.8 °F 78% 30.07 in 10.0 mi West 16.1 mph 20.7 mph N/A   Overcast
5:15 PM 16.3 °F 0.5 °F 10.4 °F 77% 30.08 in 10.0 mi West 17.3 mph 21.9 mph N/A   Overcast
5:35 PM 16.2 °F 0.3 °F 10.2 °F 77% 30.10 in 10.0 mi West 17.3 mph 23.0 mph N/A   Overcast
5:55 PM 15.8 °F 2.1 °F 10.0 °F 78% 30.12 in 10.0 mi West 12.7 mph 19.6 mph N/A   Overcast
6:15 PM 15.3 °F -2.2 °F 9.7 °F 79% 30.13 in 10.0 mi West 20.7 mph - N/A   Overcast
6:35 PM 14.5 °F -1.3 °F 8.6 °F 77% 30.14 in 10.0 mi West 16.1 mph 20.7 mph N/A   Mostly Cloudy
6:55 PM 13.8 °F -2.7 °F 8.2 °F 78% 30.15 in 10.0 mi West 17.3 mph 20.7 mph N/A   Scattered Clouds
7:15 PM 13.8 °F -1.7 °F 7.7 °F 77% 30.15 in 10.0 mi West 15.0 mph 18.4 mph N/A   Mostly Cloudy
7:35 PM 13.6 °F -2.4 °F 7.7 °F 77% 30.16 in 10.0 mi West 16.1 mph - N/A   Overcast
7:55 PM 12.9 °F -2.2 °F 7.0 °F 77% 30.16 in 10.0 mi West 13.8 mph 21.9 mph N/A   Mostly Cloudy
8:15 PM 12.6 °F -2.7 °F 6.8 °F 78% 30.16 in 10.0 mi West 13.8 mph 19.6 mph N/A   Clear
8:35 PM 12.6 °F -2.0 °F 6.8 °F 78% 30.17 in 10.0 mi West 12.7 mph - N/A   Clear
8:55 PM 12.2 °F -2.5 °F 6.4 °F 78% 30.17 in 10.0 mi West 12.7 mph - N/A   Clear
9:15 PM 12.0 °F -4.0 °F 6.4 °F 78% 30.17 in 10.0 mi West 15.0 mph - N/A   Clear
9:35 PM 11.8 °F -4.2 °F 6.1 °F 78% 30.18 in 10.0 mi West 15.0 mph - N/A   Clear
9:55 PM 11.5 °F -3.4 °F 5.9 °F 78% 30.19 in 10.0 mi West 12.7 mph 21.9 mph N/A   Clear
10:15 PM 11.3 °F -4.9 °F 5.9 °F 79% 30.19 in 10.0 mi West 15.0 mph - N/A   Clear
10:35 PM 11.3 °F -4.3 °F 5.9 °F 79% 30.19 in 10.0 mi West 13.8 mph 18.4 mph N/A   Clear
10:55 PM 11.1 °F -3.2 °F 5.9 °F 80% 30.20 in 10.0 mi West 11.5 mph - N/A   Clear
11:15 PM 10.4 °F -5.4 °F 5.0 °F 79% 30.20 in 10.0 mi WNW 13.8 mph - N/A   Clear
11:35 PM 10.8 °F -3.6 °F 5.5 °F 79% 30.21 in 10.0 mi West 11.5 mph - N/A   Clear
11:55 PM 10.4 °F -4.1 °F 5.4 °F 80% 30.22 in 10.0 mi West 11.5 mph 17.3 mph N/A   Clear